[[{"header":{"parameterUnit":"m.s-1","parameterCategory":2,"la1":30.2991,"la2":30.254,"lo1":-89.0895,"lo2":-89.0444,"dy":0.0017,"dx":0.0017,"nx":28,"ny":28,"refTime":"2025-09-05T03:00:00:Z","depth":"0","parameterNumber":2,"parameterNumberName":"U-component_of_CURRENTS"},"data":[0,0,0,0,0,0,0,0,0,0,0,0,0,0,0,0,0,0,0,0,0,0,0,0,0,0,0,0,0,0,0,0,0,0,0,0,0,0,0,0,0,0,0,0,0,0,0,0,0,0,0,0,0,0,0,0,0,0,0.1512,0.1512,0,0.1539,0.154,0.154,0.1546,0.1546,0.1546,0.1546,0.1576,0.1577,0.1578,0,0,0,0,0,0,0,0,0,0,0,0,0,0.1453,0.1454,0.1512,0.1512,0.1513,0.1539,0.154,0.154,0.1546,0.1546,0.1546,0.1546,0.1576,0.1577,0.1578,0,0,0,0,0,0,0,0,0,0,0,0,0,0.1478,0.1455,0.1512,0.152,0.1521,0.1539,0.154,0.154,0.1546,0.1546,0.1546,0.1546,0.1575,0.1577,0.1578,0.1587,0,0,0.1582,0.1582,0,0,0,0,0,0,0,0,0.1477,0.148,0.1519,0.152,0.1521,0.1541,0.153,0.1556,0.1546,0.1535,0.1546,0.1546,0.1566,0.1568,0.1571,0.1589,0.159,0.1582,0.1583,0.1583,0.1584,0,0,0,0,0,0,0,0.1475,0.1479,0.1521,0.1519,0.1521,0.1519,0.1522,0.1535,0.1549,0.1536,0.1537,0.1542,0.1566,0.1569,0.1572,0.1591,0.1582,0.1583,0.1584,0.1584,0.1654,0.1656,0,0,0,0,0,0,0.1476,0.1477,0.152,0.1522,0.15,0.152,0.1524,0.1533,0.1549,0.1552,0.1543,0.1543,0.1567,0.157,0.1573,0.1626,0.1583,0.1585,0.1585,0.1653,0.1655,0.1656,0,0,0,0,0,0,0.1474,0.1479,0.1519,0.1501,0.1506,0.1521,0.1532,0.1534,0.154,0.1554,0.1557,0.1547,0.1567,0.1571,0.1592,0.1626,0.1585,0.1586,0.1652,0.1654,0.1655,0.1707,0,0,0,0,0,0,0.1473,0.1479,0.1484,0.1502,0.1508,0.1537,0.1532,0.1534,0.1544,0.1544,0.1559,0.1561,0.1568,0.159,0.1593,0.1627,0.1587,0.1651,0.1653,0.1655,0.1704,0.171,0.1716,0,0,0,0,0,0.147,0.1483,0.1484,0.1489,0.1515,0.1537,0.154,0.1549,0.1544,0.1552,0.1562,0.1561,0.1606,0.1592,0.1595,0.163,0.165,0.1652,0.1655,0.1702,0.1709,0.1716,0,0,0,0,0,0,0.1461,0.1486,0.1487,0.1506,0.1522,0.1539,0.1549,0.155,0.1564,0.1565,0.1571,0.1575,0.1605,0.1607,0.1592,0.1656,0.163,0.1633,0.1664,0.1671,0.1677,0.1692,0.1588,0,0,0,0,0,0.1461,0.1477,0.1497,0.1512,0.1521,0.1533,0.1541,0.1549,0.1564,0.1569,0.158,0.1595,0.1618,0.1635,0.1647,0.1682,0.1711,0.1708,0.1714,0.1718,0.1733,0.1779,0.1791,0.1664,0.1664,0.1664,0,0,0.1461,0.1477,0.1486,0.1511,0.1523,0.1556,0.1538,0.1557,0.1589,0.1571,0.1611,0.161,0.1628,0.1668,0.1683,0.1676,0.1779,0.1722,0.1726,0.1738,0.1783,0.1795,0.1806,0.1666,0.1665,0.1665,0,0,0.1484,0.1485,0.1512,0.153,0.1555,0.1567,0.1573,0.1594,0.1606,0.1638,0.1637,0.1657,0.1687,0.1714,0.173,0.1776,0.18,0.1779,0.1833,0.1877,0.1888,0.1898,0.1991,0.2009,0.1791,0.1792,0.1792,0,0.1486,0.1527,0.1523,0.1559,0.1584,0.1576,0.162,0.1633,0.1659,0.1679,0.1659,0.1714,0.1717,0.1784,0.1798,0.1792,0.1833,0.1805,0.1886,0.1896,0.1906,0.1998,0.2017,0.1794,0.1794,0.1794,0.1794,0,0.1538,0.1572,0.1589,0.1637,0.1656,0.169,0.1711,0.1732,0.1738,0.1753,0.1799,0.1801,0.184,0.1842,0.1835,0.1908,0.1924,0.1881,0.187,0.1922,0.2016,0.2035,0.1798,0.1797,0.1797,0.1796,0,0,0.156,0.1617,0.1628,0.1666,0.1704,0.173,0.1779,0.1828,0.187,0.1877,0.1941,0.1958,0.1947,0.1965,0.1958,0.1991,0.2094,0.1968,0.1969,0.2066,0.2239,0.2414,0.2451,0.2061,0.2063,0.2065,0.2294,0,0.1614,0.1694,0.1708,0.179,0.1837,0.1847,0.1892,0.1927,0.1951,0.2005,0.2009,0.2057,0.2,0.2026,0.2049,0.2082,0.2139,0.2039,0.217,0.2176,0.2328,0.2477,0.247,0.2686,0.2312,0.2315,0.2318,0,0.1681,0.1726,0.1812,0.188,0.19,0.1938,0.2014,0.2051,0.2107,0.213,0.2167,0.217,0.224,0.2164,0.227,0.2211,0.2236,0.225,0.2258,0.2416,0.2386,0.2566,0.2734,0.2599,0.2346,0.2344,0.2342,0,0.1725,0.1807,0.1877,0.1903,0.197,0.2008,0.2035,0.2088,0.214,0.2215,0.228,0.2322,0.2393,0.2401,0.2463,0.2365,0.2598,0.2462,0.2652,0.2665,0.2686,0.2699,0.2743,0.2541,0.254,0.254,0.2539,0,0.1793,0.1857,0.1902,0.1946,0.2013,0.2043,0.2121,0.2155,0.2237,0.2335,0.2344,0.2463,0.2452,0.2579,0.2558,0.2741,0.2692,0.2726,0.2754,0.2711,0.2723,0.2625,0.2526,0.2548,0.2546,0.2545,0.2543,0,0.1843,0.1882,0.1958,0.2021,0.2039,0.2079,0.2158,0.2232,0.2302,0.2444,0.2486,0.2619,0.2811,0.2858,0.2948,0.2936,0.2978,0.3095,0.3093,0.3119,0.3125,0.3032,0.3065,0.2974,0.3319,0.3325,0.333,0,0.1879,0.1926,0.1987,0.2027,0.2057,0.2118,0.2178,0.2248,0.234,0.256,0.2654,0.289,0.3059,0.3323,0.3382,0.3488,0.3254,0.3528,0.3323,0.3207,0.3118,0.2911,0.2809,0.3371,0.3376,0.338,0.3383,0,0.1938,0.1953,0.2007,0.2074,0.2139,0.2194,0.2285,0.2352,0.2487,0.2627,0.2847,0.3,0.3344,0.3491,0.3713,0.3743,0.3383,0.3619,0.3461,0.3182,0.2991,0.289,0.316,0.3419,0.3416,0.3413,0.3411,0.341,0.197,0.2003,0.2068,0.2118,0.219,0.2247,0.2271,0.2405,0.2531,0.2712,0.2916,0.3133,0.3443,0.3759,0.3811,0.3867,0.3683,0.3699,0.3608,0.3417,0.329,0.3713,0.4022,0.4022,0.4022,0.4022,0.4022,0,0.1998,0.2042,0.2111,0.2161,0.221,0.2245,0.2337,0.2358,0.2471,0.2716,0.2889,0.3224,0.3481,0.369,0.3884,0.3795,0.3564,0.3689,0.3298,0.3201,0.3567,0.3529,0.3791,0.3791,0.3791,0.3791,0.3791,0.3791,0.2021,0.2082,0.2101,0.2152,0.2186,0.2206,0.2223,0.2277,0.2405,0.2606,0.2793,0.2994,0.3323,0.3651,0.369,0.363,0.3246,0.3242,0.309,0.325,0.3236,0.3223,0.3162,0.3343,0.3342,0.2613,0.2607,0.2603]},{"header":{"parameterUnit":"m.s-1","parameterCategory":2,"la1":30.2991,"la2":30.254,"lo1":-89.0895,"lo2":-89.0444,"dy":0.0017,"dx":0.0017,"nx":28,"ny":28,"refTime":"2025-09-05T03:00:00:Z","depth":"0","parameterNumber":3,"parameterNumberName":"V-component_of_CURRENTS"},"data":[0,0,0,0,0,0,0,0,0,0,0,0,0,0,0,0,0,0,0,0,0,0,0,0,0,0,0,0,0,0,0,0,0,0,0,0,0,0,0,0,0,0,0,0,0,0,0,0,0,0,0,0,0,0,0,0,0,0,-0.078,-0.0781,0,-0.0853,-0.0854,-0.0855,-0.0896,-0.0896,-0.0896,-0.0896,-0.0954,-0.0955,-0.0957,0,0,0,0,0,0,0,0,0,0,0,0,0,-0.0713,-0.0714,-0.078,-0.0781,-0.0782,-0.0853,-0.0854,-0.0855,-0.0896,-0.0896,-0.0896,-0.0896,-0.0953,-0.0955,-0.0957,0,0,0,0,0,0,0,0,0,0,0,0,0,-0.0759,-0.0714,-0.078,-0.0812,-0.0815,-0.0853,-0.0854,-0.0855,-0.0896,-0.0896,-0.0896,-0.0897,-0.0953,-0.0955,-0.0957,-0.0963,0,0,-0.0963,-0.0964,0,0,0,0,0,0,0,0,-0.0756,-0.0761,-0.0806,-0.0809,-0.0814,-0.0866,-0.0851,-0.0891,-0.0896,-0.0864,-0.0896,-0.0897,-0.0923,-0.0928,-0.094,-0.0966,-0.0969,-0.0963,-0.0964,-0.0965,-0.0966,0,0,0,0,0,0,0,-0.0753,-0.0758,-0.0808,-0.0807,-0.0812,-0.0835,-0.0841,-0.0859,-0.089,-0.0867,-0.087,-0.088,-0.0925,-0.0938,-0.0942,-0.0969,-0.0963,-0.0965,-0.0966,-0.0967,-0.0976,-0.0975,0,0,0,0,0,0,-0.0743,-0.0755,-0.0806,-0.0811,-0.0786,-0.0836,-0.0843,-0.0848,-0.0891,-0.0898,-0.0879,-0.0881,-0.0935,-0.0939,-0.0944,-0.0921,-0.0965,-0.0967,-0.0968,-0.0977,-0.0976,-0.0975,0,0,0,0,0,0,-0.0741,-0.0747,-0.0803,-0.0785,-0.0794,-0.0836,-0.0842,-0.085,-0.0859,-0.09,-0.0907,-0.0881,-0.0935,-0.0941,-0.0952,-0.0925,-0.0968,-0.097,-0.0978,-0.0977,-0.0975,-0.0896,0,0,0,0,0,0,-0.0739,-0.0745,-0.0742,-0.0784,-0.0795,-0.0809,-0.0843,-0.0851,-0.0865,-0.0868,-0.0904,-0.091,-0.0936,-0.0949,-0.0954,-0.0928,-0.0972,-0.0979,-0.0978,-0.0976,-0.09,-0.0892,-0.0886,0,0,0,0,0,-0.0736,-0.0724,-0.0741,-0.0747,-0.079,-0.0809,-0.0815,-0.0846,-0.0865,-0.0858,-0.0887,-0.0909,-0.0941,-0.095,-0.0956,-0.093,-0.098,-0.0978,-0.0976,-0.0903,-0.0894,-0.0886,0,0,0,0,0,0,-0.0682,-0.0728,-0.0748,-0.0748,-0.0771,-0.0815,-0.0813,-0.084,-0.0859,-0.0861,-0.0903,-0.091,-0.091,-0.0932,-0.0941,-0.0927,-0.0961,-0.096,-0.0904,-0.0895,-0.0888,-0.0851,-0.0973,0,0,0,0,0,-0.0671,-0.0677,-0.0722,-0.0717,-0.0728,-0.077,-0.0782,-0.0804,-0.0831,-0.084,-0.0867,-0.0891,-0.0906,-0.091,-0.093,-0.0923,-0.0933,-0.0909,-0.0902,-0.0895,-0.0869,-0.0881,-0.0872,-0.0968,-0.0968,-0.0968,0,0,-0.0646,-0.0673,-0.0675,-0.0706,-0.0728,-0.0719,-0.0777,-0.0785,-0.0772,-0.0842,-0.0829,-0.087,-0.0901,-0.0895,-0.0896,-0.0908,-0.0871,-0.0892,-0.0887,-0.0864,-0.0878,-0.0868,-0.086,-0.0966,-0.0966,-0.0967,0,0,-0.059,-0.0624,-0.0607,-0.0622,-0.0652,-0.0678,-0.0676,-0.0717,-0.0729,-0.0734,-0.0777,-0.0801,-0.0824,-0.0839,-0.085,-0.0813,-0.0838,-0.0819,-0.0745,-0.0758,-0.0749,-0.0743,-0.073,-0.0722,-0.0809,-0.0809,-0.0809,0,-0.0552,-0.0539,-0.0601,-0.0584,-0.0576,-0.0651,-0.0612,-0.0639,-0.0675,-0.0672,-0.0714,-0.0749,-0.0792,-0.0771,-0.0766,-0.0794,-0.0797,-0.0777,-0.0747,-0.074,-0.0735,-0.0723,-0.0716,-0.0805,-0.0805,-0.0805,-0.0806,0,-0.0486,-0.0468,-0.0455,-0.0456,-0.0461,-0.0441,-0.0485,-0.0491,-0.0527,-0.0554,-0.0559,-0.0629,-0.0645,-0.0668,-0.071,-0.0682,-0.0695,-0.0743,-0.0766,-0.072,-0.0711,-0.0705,-0.0799,-0.08,-0.0801,-0.0802,0,0,-0.0397,-0.0404,-0.0392,-0.0358,-0.0386,-0.0372,-0.0359,-0.0356,-0.0326,-0.0396,-0.0355,-0.0428,-0.0484,-0.05,-0.0562,-0.0578,-0.056,-0.0635,-0.0638,-0.0615,-0.056,-0.0503,-0.0492,-0.0605,-0.0604,-0.0603,-0.0565,0,-0.0308,-0.0236,-0.0272,-0.0183,-0.0139,-0.0195,-0.0168,-0.0184,-0.0215,-0.0203,-0.0292,-0.0295,-0.0414,-0.0423,-0.0462,-0.0531,-0.0542,-0.0564,-0.0613,-0.0613,-0.0564,-0.0482,-0.0439,-0.0396,-0.056,-0.0559,-0.0558,0,-0.0215,-0.0174,-0.0075,-0.0024,-0.001,0.0022,0.0066,0.0075,0.0045,0.002,-0.0024,-0.0105,-0.0147,-0.0261,-0.035,-0.0358,-0.0445,-0.0509,-0.051,-0.0475,-0.0544,-0.0473,-0.038,-0.0616,-0.0549,-0.055,-0.0551,0,-0.009,-0.0027,0.0065,0.0083,0.0114,0.0154,0.0165,0.0153,0.0192,0.0162,0.019,0.0089,0.0072,-0.0064,-0.0228,-0.0285,-0.0307,-0.041,-0.0432,-0.043,-0.0408,-0.0404,-0.054,-0.0457,-0.0457,-0.0457,-0.0457,0,0.0031,0.0114,0.0134,0.0192,0.0309,0.0278,0.0386,0.0371,0.039,0.0478,0.0314,0.037,0.012,0.0055,-0.0131,-0.0229,-0.0237,-0.0378,-0.0403,-0.0378,-0.0372,-0.059,-0.072,-0.0456,-0.0456,-0.0456,-0.0456,0,0.0167,0.0174,0.0293,0.0349,0.0373,0.0458,0.0532,0.0613,0.0593,0.0709,0.0709,0.0609,0.0535,0.0309,0.0125,-0.0059,-0.029,-0.0235,-0.0171,-0.0188,-0.0442,-0.0566,-0.0649,-0.074,-0.0249,-0.0248,-0.0246,0,0.0251,0.032,0.0418,0.0495,0.0531,0.0635,0.0716,0.072,0.0811,0.0879,0.0964,0.0911,0.0917,0.067,0.0356,0.0099,-0.0165,-0.0069,-0.0183,-0.0404,-0.0565,-0.066,-0.0741,-0.0129,-0.0127,-0.0125,-0.0123,0,0.0422,0.0444,0.0538,0.0681,0.0789,0.0902,0.1014,0.111,0.1151,0.1246,0.1366,0.1376,0.117,0.094,0.0574,0.0347,-0.0202,-0.0035,-0.0295,-0.0477,-0.0559,-0.0674,-0.0204,-0.0106,-0.0108,-0.0109,-0.011,-0.011,0.0557,0.0653,0.0757,0.089,0.1011,0.1151,0.1251,0.1379,0.1535,0.1674,0.1689,0.1756,0.1391,0.0915,0.0593,-0.001,-0.0039,-0.024,-0.0367,-0.0441,-0.0539,0.0002,0.0085,0.0084,0.0084,0.0083,0.0083,0,0.0721,0.0809,0.0955,0.111,0.1246,0.1261,0.1441,0.1533,0.1721,0.1897,0.2003,0.1914,0.1439,0.0897,0.0135,-0.0293,-0.0503,-0.0565,-0.0749,-0.0815,-0.0358,-0.0368,-0.0341,-0.0341,-0.0341,-0.034,-0.034,-0.034,0.0822,0.0981,0.1036,0.1274,0.1371,0.153,0.1616,0.1756,0.1893,0.2094,0.218,0.2226,0.1805,0.0424,-0.054,-0.0759,-0.1127,-0.1125,-0.1333,-0.1105,-0.1088,-0.1072,-0.1116,-0.1246,-0.1247,-0.1743,-0.1748,-0.1752]}],[{"header":{"parameterUnit":"m.s-1","parameterCategory":2,"la1":30.2991,"la2":30.254,"lo1":-89.0895,"lo2":-89.0444,"dy":0.0017,"dx":0.0017,"nx":28,"ny":28,"refTime":"2025-09-05T03:00:00:Z","depth":"2","parameterNumber":2,"parameterNumberName":"U-component_of_CURRENTS"},"data":[0,0,0,0,0,0,0,0,0,0,0,0,0,0,0,0,0,0,0,0,0,0,0,0,0,0,0,0,0,0,0,0,0,0,0,0,0,0,0,0,0,0,0,0,0,0,0,0,0,0,0,0,0,0,0,0,0,0,0.2097,0.2097,0,0.2116,0.2116,0.2116,0.2112,0.2111,0.2111,0.2111,0.2077,0.2076,0.2076,0,0,0,0,0,0,0,0,0,0,0,0,0,0.2059,0.206,0.2097,0.2097,0.2098,0.2116,0.2116,0.2116,0.2112,0.2111,0.2111,0.2111,0.2077,0.2076,0.2075,0,0,0,0,0,0,0,0,0,0,0,0,0,0.2075,0.206,0.2097,0.2099,0.21,0.2116,0.2116,0.2116,0.2112,0.2111,0.2111,0.2111,0.2077,0.2076,0.2075,0.2074,0,0,0.2072,0.2072,0,0,0,0,0,0,0,0,0.2074,0.2076,0.2098,0.2099,0.21,0.2113,0.2091,0.21,0.2112,0.2105,0.2111,0.2111,0.2086,0.2084,0.2086,0.2073,0.2071,0.2072,0.2071,0.2071,0.207,0,0,0,0,0,0,0,0.2073,0.2075,0.2102,0.2099,0.21,0.2101,0.2102,0.2093,0.2094,0.2106,0.2106,0.2111,0.2085,0.2087,0.2085,0.2071,0.2072,0.2071,0.207,0.207,0.2071,0.2072,0,0,0,0,0,0,0.2075,0.2074,0.2102,0.2103,0.2088,0.2102,0.2103,0.2107,0.2095,0.2094,0.2111,0.2111,0.2089,0.2086,0.2084,0.2098,0.2071,0.207,0.2069,0.207,0.2071,0.2072,0,0,0,0,0,0,0.2074,0.2077,0.2101,0.2091,0.2094,0.2103,0.2107,0.2108,0.2106,0.2101,0.2098,0.2109,0.2089,0.2085,0.208,0.2095,0.2069,0.2068,0.207,0.2071,0.2072,0.2115,0,0,0,0,0,0,0.2073,0.2077,0.2076,0.2091,0.2095,0.2112,0.2108,0.2109,0.2111,0.2111,0.2098,0.2095,0.2088,0.2082,0.2079,0.2093,0.2067,0.2069,0.207,0.2071,0.2112,0.2117,0.2121,0,0,0,0,0,0.2071,0.207,0.2076,0.2079,0.2096,0.2112,0.2114,0.2118,0.2111,0.2114,0.2108,0.2095,0.2088,0.2081,0.2078,0.2092,0.2068,0.207,0.2071,0.2111,0.2116,0.2121,0,0,0,0,0,0,0.205,0.2071,0.2077,0.2081,0.2098,0.2112,0.2112,0.2116,0.2114,0.2107,0.2099,0.2096,0.21,0.2088,0.208,0.2097,0.2078,0.2079,0.2109,0.2114,0.2118,0.2144,0.2067,0,0,0,0,0,0.2048,0.2052,0.2076,0.2078,0.2086,0.2099,0.2104,0.2109,0.2112,0.211,0.2102,0.2097,0.2105,0.2101,0.21,0.2102,0.2142,0.2111,0.2115,0.2119,0.2139,0.2211,0.2225,0.2077,0.2077,0.2077,0,0,0.2039,0.2051,0.2053,0.2074,0.2083,0.21,0.21,0.2108,0.2124,0.2106,0.211,0.2108,0.211,0.2121,0.2121,0.211,0.2186,0.2121,0.2124,0.2142,0.2214,0.2229,0.2242,0.2078,0.2078,0.2078,0,0,0.2023,0.2036,0.2036,0.2055,0.2075,0.2092,0.2095,0.2109,0.2117,0.2124,0.2126,0.2137,0.2126,0.2147,0.2155,0.218,0.2207,0.2171,0.2213,0.2283,0.2296,0.2308,0.2398,0.2418,0.2172,0.2172,0.2172,0,0.201,0.2022,0.2038,0.2049,0.2071,0.2089,0.2105,0.2121,0.213,0.2152,0.2127,0.2161,0.2148,0.2202,0.2209,0.2193,0.2245,0.2192,0.2291,0.2304,0.2316,0.2405,0.2426,0.2174,0.2174,0.2174,0.2174,0,0.2,0.2016,0.2019,0.2046,0.207,0.2086,0.2122,0.214,0.2148,0.2172,0.2213,0.2211,0.224,0.2234,0.2226,0.2306,0.2321,0.2292,0.2283,0.2334,0.2423,0.2445,0.2177,0.2177,0.2176,0.2175,0,0,0.1954,0.2003,0.2004,0.2029,0.2075,0.2095,0.2135,0.2189,0.2235,0.2239,0.2302,0.2311,0.2323,0.2334,0.2333,0.2384,0.2504,0.2374,0.2376,0.2473,0.269,0.2573,0.2586,0.2496,0.2499,0.2502,0.2727,0,0.1944,0.1968,0.2,0.204,0.2065,0.2116,0.2163,0.2215,0.2259,0.2322,0.2351,0.2401,0.236,0.2384,0.243,0.2487,0.256,0.2448,0.2618,0.2624,0.2521,0.2605,0.2383,0.2553,0.2748,0.2751,0.2754,0,0.1924,0.1952,0.1982,0.2065,0.2081,0.2111,0.2211,0.2258,0.2361,0.2398,0.2461,0.2491,0.2576,0.2523,0.2672,0.2606,0.266,0.2698,0.2707,0.2598,0.2546,0.2528,0.2585,0.279,0.2787,0.2785,0.2782,0,0.1888,0.1944,0.1972,0.1996,0.2083,0.2118,0.2174,0.2277,0.2338,0.2461,0.2525,0.2616,0.2686,0.2755,0.2823,0.2766,0.2998,0.2924,0.2885,0.2879,0.2723,0.2695,0.3052,0.3052,0.3052,0.3051,0.305,0,0.187,0.1894,0.1958,0.1975,0.2038,0.2106,0.2189,0.2266,0.2383,0.2481,0.2564,0.2657,0.275,0.2875,0.2904,0.2976,0.3072,0.2927,0.2932,0.2729,0.2701,0.2916,0.2897,0.306,0.3058,0.3056,0.3055,0,0.1823,0.1861,0.1902,0.1987,0.202,0.2064,0.2184,0.2252,0.2375,0.2512,0.2559,0.2732,0.2873,0.2972,0.3122,0.3085,0.3156,0.3164,0.2927,0.2896,0.2975,0.2956,0.3132,0.313,0.3128,0.3127,0.3125,0,0.1798,0.1811,0.1894,0.1928,0.1964,0.2041,0.2104,0.2229,0.2312,0.2549,0.2618,0.2807,0.29,0.3081,0.3069,0.3129,0.3183,0.2957,0.2766,0.2998,0.2986,0.297,0.2953,0.2609,0.2604,0.26,0.2596,0,0.1762,0.1785,0.1824,0.1891,0.1949,0.2016,0.2118,0.217,0.2346,0.2458,0.2624,0.2715,0.2881,0.2827,0.2908,0.2892,0.2907,0.2861,0.3224,0.2583,0.2511,0.2496,0.2497,0.2557,0.2561,0.2563,0.2566,0.2567,0.1732,0.1749,0.18,0.1858,0.1922,0.1978,0.2006,0.2114,0.2212,0.2333,0.2485,0.2539,0.2612,0.2559,0.2539,0.2526,0.268,0.2569,0.2581,0.2599,0.2457,0.238,0.238,0.2382,0.2385,0.2387,0.2389,0,0.1697,0.1726,0.1772,0.1832,0.1858,0.1922,0.201,0.1992,0.2055,0.2169,0.2229,0.2071,0.2074,0.2168,0.2087,0.2094,0.2056,0.2016,0.196,0.2002,0.2039,0.1865,0.1634,0.1631,0.1629,0.1626,0,0,0.1684,0.17,0.172,0.1746,0.1787,0.1797,0.1818,0.1786,0.1828,0.1785,0.1795,0.1898,0.2072,0.1791,0.1787,0.1712,0.1829,0.1641,0.2252,0.2227,0.2259,0.2371,0.2152,0,0,0,0,0]},{"header":{"parameterUnit":"m.s-1","parameterCategory":2,"la1":30.2991,"la2":30.254,"lo1":-89.0895,"lo2":-89.0444,"dy":0.0017,"dx":0.0017,"nx":28,"ny":28,"refTime":"2025-09-05T03:00:00:Z","depth":"2","parameterNumber":3,"parameterNumberName":"V-component_of_CURRENTS"},"data":[0,0,0,0,0,0,0,0,0,0,0,0,0,0,0,0,0,0,0,0,0,0,0,0,0,0,0,0,0,0,0,0,0,0,0,0,0,0,0,0,0,0,0,0,0,0,0,0,0,0,0,0,0,0,0,0,0,0,0.0035,0.0035,0,-0.0021,-0.0021,-0.0022,-0.0065,-0.0065,-0.0066,-0.0066,-0.0168,-0.017,-0.0173,0,0,0,0,0,0,0,0,0,0,0,0,0,0.0086,0.0086,0.0036,0.0035,0.0034,-0.002,-0.0021,-0.0022,-0.0065,-0.0065,-0.0066,-0.0066,-0.0167,-0.017,-0.0173,0,0,0,0,0,0,0,0,0,0,0,0,0,0.0049,0.0085,0.0036,0.0008,0.0005,-0.002,-0.0021,-0.0023,-0.0065,-0.0065,-0.0066,-0.0066,-0.0166,-0.017,-0.0174,-0.019,0,0,-0.0185,-0.0187,0,0,0,0,0,0,0,0,0.0051,0.0047,0.0013,0.001,0.0007,-0.0034,-0.0041,-0.008,-0.0065,-0.0041,-0.0066,-0.0066,-0.0126,-0.0133,-0.0145,-0.0195,-0.0199,-0.0185,-0.0188,-0.0189,-0.019,0,0,0,0,0,0,0,0.0054,0.0049,0.0011,0.0012,0.0008,-0.0008,-0.0014,-0.0049,-0.0083,-0.0043,-0.0045,-0.0048,-0.0128,-0.0141,-0.0148,-0.0201,-0.0185,-0.0189,-0.0191,-0.0192,-0.0288,-0.0288,0,0,0,0,0,0,0.0066,0.0052,0.0013,0.001,0.0031,-0.0008,-0.0015,-0.0023,-0.0082,-0.009,-0.0048,-0.005,-0.0135,-0.0143,-0.0152,-0.018,-0.0189,-0.0193,-0.0195,-0.0288,-0.0288,-0.0288,0,0,0,0,0,0,0.0067,0.0063,0.0015,0.0031,0.0024,-0.0009,-0.0017,-0.0023,-0.0032,-0.0085,-0.0095,-0.0049,-0.0135,-0.0146,-0.0179,-0.0184,-0.0194,-0.0198,-0.0287,-0.0288,-0.0288,-0.0233,0,0,0,0,0,0,0.0069,0.0064,0.0065,0.0032,0.0024,0.0008,-0.0017,-0.0024,-0.0033,-0.0036,-0.0089,-0.0099,-0.0136,-0.0173,-0.0183,-0.0189,-0.0201,-0.0287,-0.0288,-0.0288,-0.0235,-0.0232,-0.0229,0,0,0,0,0,0.0071,0.0077,0.0065,0.0061,0.0026,0.0008,0.0003,-0.0023,-0.0032,-0.0033,-0.007,-0.0098,-0.0184,-0.0176,-0.0187,-0.0195,-0.0287,-0.0287,-0.0288,-0.0236,-0.0232,-0.0229,0,0,0,0,0,0,0.0097,0.0072,0.0059,0.0056,0.0037,0.0002,0.0002,-0.0015,-0.0044,-0.0047,-0.0098,-0.011,-0.0143,-0.0175,-0.0165,-0.0225,-0.0241,-0.0244,-0.0198,-0.0195,-0.0192,-0.016,-0.0204,0,0,0,0,0,0.0105,0.0103,0.0075,0.0073,0.0067,0.0037,0.0028,0.0011,-0.0019,-0.0032,-0.007,-0.0114,-0.0155,-0.0177,-0.0217,-0.0245,-0.0256,-0.026,-0.0257,-0.0254,-0.0237,-0.026,-0.0257,-0.029,-0.029,-0.029,0,0,0.0114,0.0101,0.01,0.0079,0.0063,0.0058,0.0031,0.0023,0.0014,-0.0039,-0.0061,-0.0103,-0.016,-0.0194,-0.0212,-0.0221,-0.025,-0.0255,-0.0252,-0.0236,-0.026,-0.0257,-0.0254,-0.0291,-0.0291,-0.0291,0,0,0.0135,0.0122,0.0129,0.0118,0.0101,0.0081,0.0083,0.0052,0.0035,0.001,-0.0034,-0.0072,-0.0132,-0.0174,-0.0203,-0.0208,-0.0232,-0.0227,-0.019,-0.0213,-0.0209,-0.0207,-0.0206,-0.0204,-0.0228,-0.0228,-0.0228,0,0.0151,0.0149,0.0128,0.0132,0.013,0.0096,0.0104,0.0079,0.0039,0.0035,0.0011,-0.0066,-0.0122,-0.0159,-0.017,-0.02,-0.0206,-0.0196,-0.0206,-0.0204,-0.0202,-0.0202,-0.0201,-0.0225,-0.0226,-0.0226,-0.0226,0,0.0169,0.0173,0.0179,0.0171,0.0166,0.0168,0.0138,0.0128,0.0105,0.0082,0.0049,-0.0021,-0.0061,-0.0097,-0.0139,-0.0159,-0.0164,-0.0197,-0.0208,-0.0195,-0.0197,-0.0196,-0.0222,-0.0223,-0.0223,-0.0224,0,0,0.0191,0.0194,0.0195,0.0208,0.019,0.0191,0.0183,0.0171,0.0182,0.0129,0.014,0.0045,0.0022,-0.0013,-0.0072,-0.0104,-0.0111,-0.0141,-0.0143,-0.0126,-0.0137,-0.0216,-0.0222,-0.0143,-0.0143,-0.0142,-0.0138,0,0.0214,0.0237,0.0229,0.0253,0.0265,0.0245,0.0245,0.023,0.0214,0.0215,0.0148,0.0127,0.0049,0.0034,-0.001,-0.0078,-0.0107,-0.0107,-0.0163,-0.0164,-0.0226,-0.0224,-0.021,-0.0213,-0.0138,-0.0138,-0.0137,0,0.0229,0.0248,0.0278,0.0306,0.0311,0.0319,0.0337,0.0337,0.0325,0.0316,0.0291,0.0244,0.0193,0.0123,0.0028,0.0036,-0.0042,-0.0102,-0.0104,-0.0193,-0.0242,-0.0218,-0.0214,-0.0136,-0.0136,-0.0136,-0.0136,0,0.0251,0.0282,0.0313,0.0319,0.034,0.0357,0.0371,0.0371,0.0392,0.0392,0.0416,0.0345,0.0329,0.0223,0.0086,0.0065,-0.0009,-0.0056,-0.0196,-0.02,-0.0208,-0.0215,-0.0122,-0.0122,-0.0122,-0.0122,-0.0122,0,0.0271,0.0297,0.0331,0.0347,0.0399,0.0402,0.0455,0.0461,0.049,0.0536,0.0478,0.0494,0.0352,0.0284,0.0144,-0.0014,0.0036,-0.0179,-0.021,-0.019,-0.0196,-0.015,-0.0153,-0.0122,-0.0122,-0.0122,-0.0122,0,0.0279,0.0298,0.0344,0.0388,0.0409,0.0448,0.0514,0.0556,0.0582,0.0648,0.0654,0.0621,0.0517,0.0364,0.0204,0.0067,-0.0085,-0.0158,-0.0117,-0.0147,-0.0269,-0.0269,-0.0301,-0.0303,-0.0306,-0.0308,-0.031,0,0.0282,0.0304,0.0376,0.0417,0.0441,0.0503,0.0551,0.0593,0.0649,0.0718,0.0757,0.0692,0.0629,0.0381,0.0128,-0.0113,-0.0133,-0.0251,-0.0322,-0.0262,-0.0289,-0.0286,-0.0283,-0.029,-0.0291,-0.0293,-0.0294,0,0.0291,0.0317,0.0359,0.0446,0.0509,0.0585,0.0662,0.0716,0.0782,0.0839,0.0884,0.0841,0.0602,0.0352,0.0029,-0.0139,-0.0217,-0.0287,-0.0214,-0.0272,-0.026,-0.0284,-0.028,-0.0304,-0.0303,-0.0302,-0.0301,-0.0301,0.0298,0.0335,0.0396,0.0478,0.0559,0.0657,0.0735,0.0821,0.0912,0.1003,0.0946,0.0909,0.0637,0.0197,-0.0073,-0.0331,-0.0342,-0.0424,-0.0416,-0.0408,-0.0433,-0.0429,-0.0506,-0.0506,-0.0506,-0.0506,-0.0507,0,0.0305,0.0354,0.0427,0.0528,0.0619,0.0672,0.0807,0.0889,0.1013,0.1058,0.1063,0.0796,0.0504,0.0225,-0.0183,-0.0455,-0.0443,-0.0519,-0.0434,-0.0425,-0.0416,-0.0437,-0.0513,-0.0513,-0.0514,-0.0514,0,0,0.031,0.037,0.0412,0.0552,0.0644,0.08,0.0894,0.1015,0.1092,0.1122,0.1106,0.0964,0.061,0.0315,-0.005,-0.0261,-0.0272,-0.0306,-0.0281,-0.0129,-0.0116,-0.0352,-0.0374,0,0,0,0,0]}],[{"header":{"parameterUnit":"m.s-1","parameterCategory":2,"la1":30.2991,"la2":30.254,"lo1":-89.0895,"lo2":-89.0444,"dy":0.0017,"dx":0.0017,"nx":28,"ny":28,"refTime":"2025-09-05T03:00:00:Z","depth":"4","parameterNumber":2,"parameterNumberName":"U-component_of_CURRENTS"},"data":[0,0,0,0,0,0,0,0,0,0,0,0,0,0,0,0,0,0,0,0,0,0,0,0,0,0,0,0,0,0,0,0,0,0,0,0,0,0,0,0,0,0,0,0,0,0,0,0,0,0,0,0,0,0,0,0,0,0,0.1046,0.1047,0,0.1097,0.1098,0.1098,0.1137,0.1138,0.1138,0.1139,0.1184,0.1185,0.1186,0,0,0,0,0,0,0,0,0,0,0,0,0,0.0987,0.0987,0.1046,0.1047,0.1048,0.1097,0.1098,0.1098,0.1137,0.1138,0.1139,0.1139,0.1184,0.1185,0.1186,0,0,0,0,0,0,0,0,0,0,0,0,0,0.1021,0.0988,0.1046,0.1074,0.1077,0.1097,0.1098,0.1098,0.1137,0.1138,0.1139,0.1139,0.1184,0.1185,0.1186,0.1179,0,0,0.1189,0.119,0,0,0,0,0,0,0,0,0.1019,0.1023,0.1069,0.1072,0.1076,0.1113,0.1093,0.1125,0.1137,0.1113,0.1139,0.114,0.116,0.1163,0.117,0.1181,0.1183,0.119,0.119,0.1191,0.1191,0,0,0,0,0,0,0,0.1017,0.1021,0.1065,0.107,0.1074,0.1085,0.1091,0.11,0.1131,0.1115,0.1119,0.1126,0.1162,0.1168,0.1171,0.1183,0.119,0.1191,0.1191,0.1192,0.1268,0.127,0,0,0,0,0,0,0.1012,0.1019,0.1064,0.1067,0.105,0.1086,0.1092,0.1099,0.1131,0.1137,0.1125,0.1128,0.1166,0.117,0.1173,0.1238,0.1191,0.1192,0.1192,0.1267,0.1269,0.127,0,0,0,0,0,0,0.1011,0.1015,0.1062,0.1045,0.1052,0.1086,0.1094,0.11,0.1132,0.1139,0.1145,0.1154,0.1167,0.1171,0.1203,0.1238,0.1192,0.1193,0.1266,0.1268,0.1269,0.1323,0,0,0,0,0,0,0.1009,0.1015,0.1029,0.1045,0.1053,0.1085,0.1094,0.11,0.1134,0.1138,0.1165,0.1169,0.1168,0.1201,0.1204,0.1238,0.1194,0.1264,0.1266,0.1269,0.1319,0.1326,0.1333,0,0,0,0,0,0.1006,0.1015,0.1029,0.1035,0.1067,0.1086,0.1091,0.1117,0.1135,0.1149,0.1172,0.1169,0.122,0.1203,0.1206,0.1242,0.1263,0.1266,0.1269,0.1316,0.1325,0.1332,0,0,0,0,0,0,0.0995,0.1021,0.1036,0.1053,0.1076,0.1093,0.1112,0.1131,0.1161,0.1173,0.1181,0.1186,0.1231,0.1226,0.1207,0.1271,0.1243,0.1246,0.1278,0.1286,0.1293,0.1287,0.1195,0,0,0,0,0,0.0999,0.1016,0.104,0.1057,0.107,0.1098,0.1114,0.1132,0.1155,0.1171,0.119,0.1213,0.1241,0.1256,0.1272,0.1301,0.1303,0.1328,0.1334,0.134,0.1338,0.138,0.1391,0.128,0.128,0.128,0,0,0.1001,0.1017,0.1029,0.1057,0.1078,0.1098,0.111,0.114,0.1165,0.117,0.1214,0.1238,0.1254,0.1293,0.1312,0.1296,0.1373,0.1344,0.1348,0.1343,0.1385,0.1395,0.1405,0.1282,0.1282,0.1282,0,0,0.1002,0.1028,0.1043,0.1061,0.1097,0.1113,0.1128,0.116,0.1187,0.1224,0.1245,0.1286,0.1317,0.134,0.1355,0.1405,0.1408,0.1421,0.145,0.1491,0.1501,0.1509,0.1525,0.1534,0.1423,0.1423,0.1423,0,0.1005,0.1024,0.105,0.1066,0.1087,0.1123,0.1144,0.1172,0.1212,0.1241,0.1244,0.1325,0.1337,0.1397,0.1418,0.142,0.144,0.1419,0.15,0.1508,0.1516,0.153,0.154,0.1426,0.1426,0.1425,0.1425,0,0.1007,0.1035,0.1046,0.108,0.1106,0.1129,0.1169,0.1203,0.1241,0.1274,0.1347,0.1373,0.1423,0.144,0.1444,0.1515,0.151,0.1506,0.1479,0.153,0.1542,0.1551,0.143,0.1429,0.1428,0.1427,0,0,0.0982,0.1037,0.1044,0.1067,0.1118,0.1135,0.1184,0.1237,0.128,0.1331,0.139,0.1448,0.1483,0.1502,0.1528,0.156,0.1628,0.1561,0.1562,0.1575,0.1716,0.1605,0.1604,0.1651,0.1652,0.1654,0.1702,0,0.098,0.1012,0.1044,0.1085,0.1107,0.1156,0.1199,0.1256,0.1309,0.1372,0.1429,0.1501,0.1504,0.155,0.1584,0.1625,0.1655,0.1614,0.1666,0.1666,0.1561,0.1612,0.166,0.1709,0.1711,0.1712,0.1713,0,0.097,0.0996,0.1035,0.1098,0.1114,0.1147,0.1226,0.1275,0.1369,0.1419,0.1499,0.1549,0.163,0.1618,0.1706,0.1688,0.1707,0.1721,0.1724,0.1605,0.1572,0.1648,0.1729,0.1728,0.1727,0.1725,0.1724,0,0.0933,0.099,0.1024,0.1042,0.1115,0.1152,0.1206,0.1296,0.1343,0.1472,0.1523,0.1619,0.168,0.1729,0.1768,0.1756,0.184,0.1824,0.1736,0.1728,0.1788,0.1779,0.1875,0.1875,0.1875,0.1875,0.1875,0,0.0907,0.0936,0.1015,0.1027,0.1081,0.1149,0.1217,0.1288,0.1384,0.1452,0.1562,0.1615,0.1715,0.177,0.1793,0.1789,0.1867,0.1744,0.1738,0.1809,0.1801,0.1794,0.1784,0.1877,0.1876,0.1876,0.1876,0,0.0857,0.091,0.0951,0.1033,0.1065,0.1112,0.1212,0.1256,0.1374,0.1463,0.1515,0.163,0.1711,0.1777,0.1852,0.1809,0.1827,0.1804,0.1873,0.1869,0.1677,0.1669,0.1706,0.1703,0.17,0.1697,0.1695,0,0.0831,0.0848,0.0939,0.0968,0.101,0.1085,0.1134,0.1249,0.1294,0.1455,0.1485,0.1602,0.1674,0.1689,0.1759,0.1794,0.1775,0.177,0.1719,0.1672,0.1663,0.1659,0.1656,0.1691,0.169,0.1689,0.1689,0,0.0775,0.0818,0.0849,0.0912,0.0969,0.1013,0.1093,0.1111,0.1254,0.1366,0.1441,0.1497,0.1569,0.1619,0.1661,0.1679,0.1769,0.174,0.1745,0.1697,0.1654,0.1647,0.1646,0.1679,0.168,0.1681,0.1682,0,0.0734,0.0741,0.0793,0.0841,0.0904,0.0925,0.0976,0.1038,0.1101,0.1285,0.1301,0.1441,0.155,0.1558,0.1595,0.161,0.1582,0.1536,0.1552,0.1563,0.1494,0.1417,0.1368,0,0,0,0,0,0.0684,0.0684,0.0716,0.0762,0.0817,0.0857,0.0937,0.0991,0.1129,0.1156,0.1227,0.1303,0.1372,0.1424,0.141,0.1508,0.157,0.1483,0.152,0.1623,0.1635,0.1566,0,0,0,0,0,0,0.0648,0.0676,0.0686,0.0686,0.0703,0.0753,0.0803,0.0893,0.091,0.1062,0.1101,0.1229,0.1301,0.1375,0.1389,0.1406,0.1404,0.1567,0.1564,0.1617,0.1627,0.1637,0.157,0,0,0,0,0]},{"header":{"parameterUnit":"m.s-1","parameterCategory":2,"la1":30.2991,"la2":30.254,"lo1":-89.0895,"lo2":-89.0444,"dy":0.0017,"dx":0.0017,"nx":28,"ny":28,"refTime":"2025-09-05T03:00:00:Z","depth":"4","parameterNumber":3,"parameterNumberName":"V-component_of_CURRENTS"},"data":[0,0,0,0,0,0,0,0,0,0,0,0,0,0,0,0,0,0,0,0,0,0,0,0,0,0,0,0,0,0,0,0,0,0,0,0,0,0,0,0,0,0,0,0,0,0,0,0,0,0,0,0,0,0,0,0,0,0,0.009,0.009,0,0.0066,0.0065,0.0065,0.0049,0.0049,0.0049,0.0049,0.0026,0.0025,0.0025,0,0,0,0,0,0,0,0,0,0,0,0,0,0.0111,0.011,0.009,0.009,0.009,0.0066,0.0065,0.0065,0.0049,0.0049,0.0049,0.0049,0.0026,0.0025,0.0024,0,0,0,0,0,0,0,0,0,0,0,0,0,0.0095,0.011,0.009,0.0079,0.0078,0.0066,0.0065,0.0065,0.0049,0.0049,0.0049,0.0049,0.0026,0.0025,0.0024,0.0021,0,0,0.0022,0.0021,0,0,0,0,0,0,0,0,0.0096,0.0094,0.0081,0.008,0.0078,0.0061,0.0064,0.005,0.0049,0.0059,0.0049,0.0049,0.0038,0.0036,0.0031,0.002,0.0019,0.0022,0.0021,0.0021,0.0021,0,0,0,0,0,0,0,0.0097,0.0095,0.008,0.0081,0.0079,0.0071,0.0069,0.0061,0.0049,0.0058,0.0057,0.0055,0.0037,0.0032,0.003,0.0019,0.0022,0.0021,0.0021,0.002,0.0016,0.0017,0,0,0,0,0,0,0.0102,0.0096,0.0081,0.0079,0.0088,0.0071,0.0068,0.0066,0.0049,0.0047,0.0056,0.0055,0.0033,0.0031,0.0029,0.004,0.0021,0.002,0.002,0.0016,0.0016,0.0017,0,0,0,0,0,0,0.0102,0.0101,0.0082,0.0088,0.0085,0.0071,0.0068,0.0066,0.0061,0.0047,0.0044,0.0054,0.0033,0.0031,0.003,0.0038,0.002,0.0019,0.0015,0.0016,0.0016,0.0051,0,0,0,0,0,0,0.0103,0.0101,0.0101,0.0088,0.0085,0.0079,0.0068,0.0065,0.0061,0.0059,0.0045,0.0043,0.0033,0.0032,0.0029,0.0037,0.0018,0.0015,0.0016,0.0016,0.0049,0.0053,0.0055,0,0,0,0,0,0.0104,0.0104,0.0101,0.0099,0.0085,0.0079,0.0077,0.0066,0.0061,0.0062,0.0055,0.0043,0.0035,0.0031,0.0029,0.0036,0.0014,0.0015,0.0016,0.0048,0.0052,0.0055,0,0,0,0,0,0,0.0109,0.0102,0.0099,0.0096,0.0091,0.0077,0.0075,0.0069,0.0063,0.0062,0.0049,0.0046,0.0048,0.0038,0.0034,0.0037,0.0022,0.0023,0.0047,0.0051,0.0054,0.0052,0.0018,0,0,0,0,0,0.0112,0.0112,0.0104,0.0101,0.01,0.0089,0.0085,0.0079,0.0072,0.0069,0.006,0.0052,0.0049,0.0047,0.004,0.0042,0.0011,0.0045,0.0048,0.0051,0.0047,0.001,0.0009,0.002,0.002,0.002,0,0,0.0112,0.0109,0.0108,0.0103,0.0097,0.01,0.0086,0.0082,0.0087,0.0067,0.0071,0.0062,0.0052,0.0055,0.0055,0.0048,0.003,0.0052,0.0054,0.0049,0.0011,0.001,0.0009,0.002,0.002,0.002,0,0,0.0115,0.0112,0.0114,0.0114,0.011,0.0107,0.0108,0.0099,0.0098,0.0101,0.0089,0.0086,0.008,0.0075,0.0072,0.0087,0.0047,0.0085,0.0099,0.0064,0.0063,0.0061,0.0013,0.0007,0.0088,0.0088,0.0088,0,0.0116,0.0118,0.0114,0.0119,0.0121,0.0113,0.0119,0.0119,0.0112,0.0111,0.0108,0.0094,0.009,0.0089,0.0098,0.0095,0.0059,0.0087,0.0067,0.0065,0.0063,0.0014,0.0006,0.0089,0.0089,0.0089,0.0089,0,0.0122,0.0126,0.0128,0.0135,0.0139,0.0142,0.0144,0.0147,0.0146,0.014,0.0137,0.0128,0.0116,0.012,0.0116,0.0103,0.0077,0.0074,0.0057,0.0064,0.0012,0.0003,0.0092,0.0091,0.0091,0.009,0,0,0.0117,0.013,0.0131,0.0139,0.0148,0.0151,0.0165,0.0169,0.0171,0.0166,0.0161,0.0164,0.0147,0.0142,0.0133,0.0111,0.0071,0.0088,0.0086,0.0038,-0.0026,-0.0039,-0.005,0.0059,0.0058,0.0058,-0.0058,0,0.0123,0.0138,0.0144,0.0161,0.0169,0.0174,0.0187,0.0191,0.019,0.0183,0.017,0.0163,0.016,0.0152,0.013,0.0085,0.0051,0.0101,-0.0023,-0.0027,-0.0042,-0.0059,0.0054,-0.0064,-0.0066,-0.0068,-0.0069,0,0.0125,0.0137,0.0155,0.0175,0.0179,0.0191,0.0205,0.0214,0.0207,0.0204,0.0189,0.017,0.0143,0.0139,0.0054,0.0082,0.003,-0.0006,-0.0012,-0.0043,-0.0056,-0.0071,-0.0084,-0.0083,-0.0082,-0.0081,-0.008,0,0.0123,0.0144,0.0161,0.0168,0.019,0.02,0.0212,0.0217,0.0226,0.021,0.0207,0.0165,0.014,0.0075,0.0006,0.0021,-0.0101,-0.0091,-0.0157,-0.0159,-0.0127,-0.0125,-0.016,-0.016,-0.0159,-0.0159,-0.0159,0,0.0124,0.0135,0.0162,0.017,0.0191,0.0204,0.0222,0.0227,0.0232,0.0242,0.0213,0.0202,0.0122,0.005,-0.0013,-0.0119,-0.0123,-0.0166,-0.019,-0.0111,-0.0104,-0.0134,-0.013,-0.0164,-0.0163,-0.0162,-0.0161,0,0.0112,0.0129,0.0147,0.0176,0.019,0.0202,0.0237,0.0251,0.0252,0.0261,0.0257,0.0209,0.0115,0.0022,-0.0097,-0.0145,-0.0239,-0.0276,-0.0203,-0.0219,-0.0272,-0.0264,-0.0365,-0.0366,-0.0368,-0.0369,-0.037,0,0.0103,0.0113,0.0151,0.0171,0.0185,0.0212,0.0238,0.0258,0.028,0.0272,0.0278,0.0189,0.0147,-0.0036,-0.0138,-0.0291,-0.0296,-0.0354,-0.0292,-0.028,-0.0293,-0.0283,-0.0274,-0.0371,-0.0372,-0.0372,-0.0372,0,0.0087,0.0102,0.0123,0.0169,0.0201,0.024,0.0279,0.0297,0.0324,0.0318,0.03,0.0215,0.0096,-0.0035,-0.0169,-0.0265,-0.0319,-0.0367,-0.0364,-0.0306,-0.0289,-0.0299,-0.0288,-0.0377,-0.0376,-0.0376,-0.0375,0,0.0075,0.0089,0.0129,0.0172,0.0215,0.0269,0.0284,0.032,0.034,0.0345,0.0328,0.0219,0.0148,-0.0025,-0.014,-0.0252,-0.0263,-0.0272,-0.0274,-0.0271,-0.02,-0.0163,-0.0243,0,0,0,0,0,0.0069,0.0101,0.0135,0.0193,0.0237,0.0274,0.0321,0.0338,0.036,0.0359,0.0353,0.0255,0.0085,0.0003,-0.011,-0.0174,-0.0297,-0.031,-0.0312,-0.04,-0.0395,-0.0328,0,0,0,0,0,0,0.0069,0.0104,0.0136,0.0209,0.0255,0.0315,0.035,0.0364,0.0369,0.0368,0.0277,0.0237,0.0062,0.0154,-0.0107,-0.0145,-0.0159,-0.0394,-0.0396,-0.0403,-0.0399,-0.0395,-0.0324,0,0,0,0,0]}]]